�������l�o���
Date,Time,MP-1(��Sv/h),MP-2(��Sv/h),MP-3(��Sv/h),MP-4(��Sv/h),MP-5(��Sv/h),MP-6(��Sv/h),MP-7(��Sv/h),MP-8(��Sv/h),����,����(m/s),���J
2020/02/16,00:00,0.708,1.019,0.666,1.259,0.893,0.404,0.707,0.671,�k�k��,3.9,��
2020/02/16,00:10,0.704,1.018,0.666,1.259,0.893,0.404,0.705,0.672,�k�k��,3.9,��
2020/02/16,00:20,0.705,1.019,0.666,1.261,0.892,0.404,0.707,0.671,�k�k��,3.7,��
2020/02/16,00:30,0.705,1.020,0.665,1.261,0.892,0.405,0.707,0.670,�k��,3.4,��
2020/02/16,00:40,0.705,1.019,0.665,1.257,0.893,0.405,0.708,0.672,�k��,2.9,��
2020/02/16,00:50,0.707,1.019,0.665,1.260,0.894,0.405,0.708,0.669,�k��,3.7,��
2020/02/16,01:00,0.709,1.017,0.665,1.260,0.894,0.404,0.707,0.671,�k�k��,3.1,��
2020/02/16,01:10,0.707,1.020,0.666,1.260,0.895,0.405,0.708,0.671,�k�k��,3.4,��
2020/02/16,01:20,0.707,1.019,0.667,1.259,0.894,0.406,0.708,0.670,�k�k��,3.9,��
2020/02/16,01:30,0.707,1.018,0.665,1.260,0.891,0.404,0.709,0.671,�k��,4.2,��
2020/02/16,01:40,0.707,1.017,0.666,1.260,0.895,0.406,0.706,0.672,�k��,4.7,��
2020/02/16,01:50,0.705,1.017,0.666,1.258,0.892,0.404,0.708,0.671,�k��,4.6,��
2020/02/16,02:00,0.706,1.018,0.666,1.259,0.891,0.406,0.708,0.671,�k�k��,4.4,��
2020/02/16,02:10,0.707,1.018,0.666,1.261,0.893,0.404,0.708,0.670,�k�k��,4.3,��
2020/02/16,02:20,0.707,1.019,0.667,1.260,0.894,0.405,0.709,0.671,�k�k��,4.1,��
2020/02/16,02:30,0.707,1.020,0.667,1.262,0.892,0.403,0.708,0.672,�k�k��,4.4,��
2020/02/16,02:40,0.708,1.019,0.666,1.259,0.893,0.404,0.708,0.671,�k�k��,4.5,��
2020/02/16,02:50,0.705,1.018,0.665,1.261,0.892,0.404,0.708,0.671,�k�k��,4.8,��
2020/02/16,03:00,0.707,1.019,0.667,1.259,0.893,0.404,0.708,0.671,�k�k��,4.7,��
2020/02/16,03:10,0.707,1.017,0.666,1.261,0.893,0.405,0.708,0.672,�k�k��,4.8,��
2020/02/16,03:20,0.708,1.016,0.666,1.261,0.892,0.405,0.710,0.672,�k�k��,4.9,��
2020/02/16,03:30,0.707,1.018,0.668,1.261,0.892,0.405,0.708,0.671,�k�k��,4.6,��
2020/02/16,03:40,0.707,1.017,0.667,1.257,0.893,0.404,0.709,0.671,�k�k��,4.3,��
2020/02/16,03:50,0.707,1.019,0.665,1.261,0.893,0.405,0.709,0.671,�k�k��,5.3,��
2020/02/16,04:00,0.707,1.016,0.666,1.261,0.892,0.405,0.708,0.671,�k�k��,5.4,��
2020/02/16,04:10,0.707,1.019,0.666,1.261,0.892,0.404,0.709,0.672,�k�k��,5.8,��
2020/02/16,04:20,0.705,1.019,0.666,1.261,0.891,0.406,0.709,0.671,�k�k��,5.5,��
2020/02/16,04:30,0.706,1.019,0.667,1.260,0.892,0.406,0.708,0.673,�k�k��,5.8,��
2020/02/16,04:40,0.706,1.019,0.666,1.261,0.892,0.405,0.709,0.672,�k�k��,6.1,��
2020/02/16,04:50,0.708,1.020,0.667,1.261,0.893,0.405,0.708,0.672,�k�k��,5.5,��
2020/02/16,05:00,0.707,1.021,0.667,1.263,0.893,0.406,0.708,0.673,�k�k��,7.4,��
2020/02/16,05:10,0.707,1.019,0.668,1.260,0.893,0.405,0.709,0.672,�k,6.9,��
2020/02/16,05:20,0.707,1.019,0.666,1.258,0.893,0.405,0.708,0.672,�k,7.2,��
2020/02/16,05:30,0.705,1.019,0.665,1.262,0.893,0.405,0.708,0.671,�k,6.5,��
2020/02/16,05:40,0.709,1.018,0.667,1.260,0.894,0.405,0.708,0.671,�k,7.9,��
2020/02/16,05:50,0.707,1.019,0.667,1.261,0.893,0.403,0.707,0.671,�k�k��,7.9,��
2020/02/16,06:00,0.707,1.019,0.666,1.262,0.892,0.404,0.709,0.669,�k�k��,6.4,��
2020/02/16,06:10,0.707,1.018,0.665,1.261,0.894,0.404,0.708,0.673,�k�k��,7.0,��
2020/02/16,06:20,0.707,1.021,0.666,1.261,0.892,0.405,0.707,0.672,�k�k��,7.6,��
2020/02/16,06:30,0.703,1.018,0.665,1.260,0.892,0.405,0.707,0.671,�k�k��,8.0,��
2020/02/16,06:40,0.707,1.017,0.666,1.262,0.894,0.403,0.707,0.671,�k�k��,6.6,��
2020/02/16,06:50,0.706,1.019,0.666,1.261,0.894,0.405,0.707,0.672,�k�k��,7.5,��
2020/02/16,07:00,0.707,1.020,0.665,1.263,0.894,0.405,0.708,0.670,�k�k��,5.8,��
2020/02/16,07:10,0.707,1.018,0.664,1.261,0.893,0.404,0.708,0.670,�k�k��,6.3,��
2020/02/16,07:20,0.707,1.019,0.666,1.258,0.894,0.404,0.708,0.673,�k�k��,6.9,��
2020/02/16,07:30,0.705,1.019,0.666,1.261,0.894,0.404,0.708,0.673,�k��,6.5,��
2020/02/16,07:40,0.708,1.018,0.665,1.262,0.894,0.404,0.708,0.670,�k��,6.6,��
2020/02/16,07:50,0.707,1.020,0.666,1.260,0.896,0.403,0.710,0.670,�k�k��,6.8,��
2020/02/16,08:00,0.709,1.018,0.667,1.260,0.894,0.404,0.707,0.671,�k�k��,7.4,��
2020/02/16,08:10,0.707,1.017,0.665,1.260,0.892,0.404,0.707,0.671,�k�k��,7.4,��
2020/02/16,08:20,0.707,1.018,0.666,1.261,0.892,0.404,0.708,0.671,�k�k��,7.0,��
2020/02/16,08:30,0.706,1.020,0.666,1.262,0.892,0.404,0.708,0.672,�k�k��,5.5,��
2020/02/16,08:40,0.706,1.021,0.667,1.259,0.892,0.403,0.709,0.672,�k�k��,6.2,��
2020/02/16,08:50,0.706,1.018,0.667,1.260,0.891,0.404,0.708,0.671,�k�k��,6.0,��
2020/02/16,09:00,0.705,1.017,0.665,1.264,0.892,0.404,0.708,0.670,�k�k��,5.6,��
2020/02/16,09:10,0.708,1.017,0.666,1.260,0.891,0.403,0.709,0.671,�k��,6.1,�L
2020/02/16,09:20,0.705,1.018,0.667,1.261,0.892,0.404,0.709,0.672,�k�k��,6.5,�L
2020/02/16,09:30,0.706,1.019,0.665,1.261,0.892,0.404,0.707,0.670,�k�k��,6.4,�L
2020/02/16,09:40,0.706,1.018,0.667,1.259,0.891,0.405,0.709,0.671,�k�k��,6.4,�L
2020/02/16,09:50,0.705,1.019,0.666,1.263,0.892,0.404,0.709,0.673,�k�k��,6.4,�L
2020/02/16,10:00,0.707,1.018,0.667,1.260,0.893,0.405,0.708,0.672,�k�k��,6.0,�L
2020/02/16,10:10,0.704,1.020,0.665,1.262,0.891,0.404,0.708,0.671,�k�k��,5.9,�L
2020/02/16,10:20,0.708,1.020,0.667,1.260,0.892,0.407,0.708,0.670,�k�k��,5.4,�L
2020/02/16,10:30,0.707,1.019,0.664,1.261,0.891,0.404,0.708,0.670,�k�k��,6.1,�L
2020/02/16,10:40,0.707,1.017,0.666,1.260,0.892,0.404,0.708,0.672,�k�k��,6.2,�L
2020/02/16,10:50,0.707,1.019,0.666,1.260,0.890,0.403,0.710,0.671,�k�k��,5.7,�L
2020/02/16,11:00,0.708,1.016,0.666,1.260,0.891,0.404,0.707,0.670,�k�k��,5.6,�L
2020/02/16,11:10,0.706,1.017,0.667,1.261,0.890,0.405,0.708,0.672,�k�k��,5.7,�L
2020/02/16,11:20,0.707,1.015,0.666,1.260,0.891,0.406,0.708,0.671,�k�k��,6.0,�L
2020/02/16,11:30,0.705,1.011,0.664,1.256,0.886,0.406,0.709,0.670,�k�k��,6.2,�L
2020/02/16,11:40,0.705,1.006,0.664,1.254,0.884,0.406,0.707,0.671,�k�k��,6.0,�L
2020/02/16,11:50,0.703,1.005,0.666,1.254,0.884,0.407,0.707,0.670,�k�k��,5.9,�L
2020/02/16,12:00,0.702,1.000,0.664,1.252,0.881,0.408,0.706,0.669,�k�k��,6.2,�L
2020/02/16,12:10,0.702,0.997,0.659,1.243,0.875,0.407,0.704,0.669,�k�k��,5.7,�L
2020/02/16,12:20,0.698,0.991,0.661,1.240,0.872,0.406,0.702,0.666,�k�k��,6.2,�L
2020/02/16,12:30,0.697,0.989,0.660,1.235,0.872,0.406,0.702,0.667,�k,6.4,�L
2020/02/16,12:40,0.697,0.987,0.659,1.231,0.872,0.405,0.702,0.666,�k,5.2,�L
2020/02/16,12:50,0.696,0.987,0.659,1.228,0.869,0.406,0.701,0.666,�k,6.6,�L
2020/02/16,13:00,0.696,0.985,0.659,1.227,0.869,0.408,0.701,0.666,�k,6.5,�L
2020/02/16,13:10,0.696,0.983,0.658,1.223,0.868,0.407,0.699,0.664,�k,6.0,�L
2020/02/16,13:20,0.695,0.983,0.658,1.221,0.869,0.407,0.699,0.665,�k,7.0,�L
2020/02/16,13:30,0.695,0.983,0.656,1.221,0.866,0.407,0.699,0.663,�k,8.3,�L
2020/02/16,13:40,0.693,0.981,0.656,1.219,0.867,0.406,0.699,0.664,�k,7.2,�L
2020/02/16,13:50,0.694,0.982,0.656,1.217,0.865,0.405,0.700,0.664,�k,8.0,�L
2020/02/16,14:00,0.695,0.981,0.658,1.217,0.866,0.404,0.700,0.663,�k,7.5,�L
2020/02/16,14:10,0.692,0.979,0.655,1.215,0.863,0.405,0.698,0.663,�k,7.1,�L
2020/02/16,14:20,0.690,0.978,0.655,1.217,0.865,0.404,0.698,0.664,�k�k��,6.6,�L
2020/02/16,14:30,0.692,0.978,0.653,1.216,0.865,0.403,0.699,0.662,�k�k��,7.5,�L
2020/02/16,14:40,0.692,0.980,0.653,1.216,0.865,0.405,0.697,0.662,�k�k��,6.6,�L
2020/02/16,14:50,0.690,0.981,0.652,1.213,0.863,0.403,0.698,0.663,�k�k��,7.7,�L
2020/02/16,15:00,0.689,0.977,0.654,1.215,0.861,0.403,0.696,0.663,�k�k��,8.1,�L
2020/02/16,15:10,0.687,0.979,0.650,1.213,0.862,0.402,0.698,0.661,�k�k��,8.2,�L
2020/02/16,15:20,0.688,0.978,0.651,1.214,0.860,0.402,0.697,0.663,�k�k��,7.6,�L
2020/02/16,15:30,0.688,0.978,0.650,1.214,0.862,0.401,0.699,0.663,�k�k��,7.0,�L
2020/02/16,15:40,0.689,0.978,0.652,1.211,0.861,0.400,0.695,0.662,�k�k��,6.6,�L
2020/02/16,15:50,0.686,0.975,0.652,1.210,0.861,0.399,0.698,0.660,�k�k��,5.9,�L
2020/02/16,16:00,0.686,0.977,0.648,1.211,0.858,0.398,0.698,0.662,�k�k��,6.8,��
2020/02/16,16:10,0.686,0.976,0.649,1.213,0.861,0.398,0.695,0.661,�k��,6.9,��
2020/02/16,16:20,0.686,0.976,0.648,1.209,0.859,0.398,0.697,0.662,�k��,6.1,��
2020/02/16,16:30,0.686,0.977,0.649,1.212,0.857,0.398,0.698,0.660,�k��,6.8,��
2020/02/16,16:40,0.686,0.979,0.648,1.209,0.859,0.398,0.697,0.661,�k��,6.3,��
2020/02/16,16:50,0.686,0.977,0.649,1.211,0.858,0.398,0.698,0.661,�k��,6.2,��
2020/02/16,17:00,0.686,0.977,0.648,1.210,0.857,0.397,0.697,0.660,�k��,7.1,�L
2020/02/16,17:10,0.685,0.977,0.647,1.211,0.860,0.395,0.696,0.661,�k��,6.4,�L
2020/02/16,17:20,0.684,0.977,0.646,1.210,0.859,0.396,0.698,0.662,�k��,7.6,�L
2020/02/16,17:30,0.685,0.978,0.648,1.210,0.858,0.396,0.698,0.661,�k��,5.8,�L
2020/02/16,17:40,0.686,0.977,0.648,1.211,0.859,0.397,0.697,0.661,�k�k��,7.8,�L
2020/02/16,17:50,0.685,0.978,0.648,1.215,0.858,0.397,0.698,0.660,�k�k��,6.8,�L
2020/02/16,18:00,0.685,0.978,0.647,1.212,0.859,0.395,0.697,0.662,�k�k��,6.8,�L
2020/02/16,18:10,0.685,0.979,0.648,1.211,0.858,0.396,0.697,0.661,�k�k��,7.0,��
2020/02/16,18:20,0.684,0.977,0.648,1.213,0.859,0.397,0.698,0.661,�k�k��,6.7,�L
2020/02/16,18:30,0.686,0.980,0.648,1.212,0.859,0.396,0.698,0.662,�k�k��,6.8,�L
2020/02/16,18:40,0.685,0.977,0.648,1.211,0.860,0.397,0.698,0.661,�k�k��,5.9,�L
2020/02/16,18:50,0.686,0.978,0.648,1.211,0.859,0.396,0.699,0.662,�k�k��,5.5,�L
2020/02/16,19:00,0.688,0.978,0.649,1.211,0.860,0.398,0.698,0.660,�k�k��,6.4,�L
2020/02/16,19:10,0.687,0.978,0.648,1.212,0.860,0.397,0.698,0.662,�k�k��,6.4,�L
2020/02/16,19:20,0.686,0.979,0.649,1.212,0.860,0.398,0.696,0.660,�k�k��,5.5,�L
2020/02/16,19:30,0.688,0.979,0.649,1.215,0.859,0.398,0.698,0.661,�k�k��,5.3,�L
2020/02/16,19:40,0.686,0.977,0.650,1.212,0.862,0.399,0.699,0.661,�k�k��,5.3,�L
2020/02/16,19:50,0.689,0.980,0.649,1.212,0.860,0.398,0.699,0.661,�k�k��,5.5,�L
2020/02/16,20:00,0.687,0.978,0.648,1.212,0.860,0.396,0.700,0.660,�k�k��,5.6,��
2020/02/16,20:10,0.686,0.976,0.649,1.212,0.859,0.398,0.698,0.661,�k�k��,6.4,�L
2020/02/16,20:20,0.685,0.978,0.648,1.214,0.861,0.397,0.699,0.660,�k�k��,7.9,�L
2020/02/16,20:30,0.685,0.978,0.650,1.213,0.860,0.396,0.696,0.662,�k�k��,7.1,�L
2020/02/16,20:40,0.688,0.977,0.648,1.214,0.860,0.396,0.698,0.662,�k�k��,6.3,�L
2020/02/16,20:50,0.686,0.981,0.649,1.212,0.859,0.394,0.698,0.661,�k�k��,6.2,�L
2020/02/16,21:00,0.686,0.977,0.649,1.213,0.860,0.397,0.699,0.662,�k�k��,6.0,��
2020/02/16,21:10,0.685,0.976,0.649,1.215,0.859,0.398,0.698,0.661,�k�k��,6.1,�L
2020/02/16,21:20,0.684,0.978,0.647,1.214,0.857,0.396,0.699,0.661,�k�k��,6.8,��
2020/02/16,21:30,0.686,0.977,0.649,1.214,0.860,0.397,0.699,0.661,�k�k��,6.4,��
2020/02/16,21:40,0.686,0.977,0.648,1.213,0.860,0.396,0.699,0.661,�k�k��,6.8,��
2020/02/16,21:50,0.686,0.977,0.649,1.214,0.861,0.397,0.699,0.661,�k,6.8,��
2020/02/16,22:00,0.687,0.978,0.650,1.216,0.862,0.397,0.700,0.662,�k�k��,5.9,��
2020/02/16,22:10,0.685,0.979,0.649,1.213,0.861,0.398,0.698,0.662,�k�k��,5.9,��
2020/02/16,22:20,0.688,0.976,0.650,1.213,0.860,0.397,0.697,0.663,�k�k��,5.8,��
2020/02/16,22:30,0.688,0.980,0.649,1.213,0.861,0.397,0.699,0.661,�k�k��,4.6,��
2020/02/16,22:40,0.686,0.978,0.649,1.215,0.860,0.397,0.699,0.662,�k�k��,4.9,��
2020/02/16,22:50,0.685,0.978,0.649,1.213,0.861,0.397,0.699,0.661,�k�k��,4.8,�L
2020/02/16,23:00,0.688,0.979,0.650,1.214,0.860,0.397,0.699,0.661,�k�k��,5.8,�L
2020/02/16,23:10,0.687,0.978,0.652,1.216,0.861,0.400,0.698,0.663,�k�k��,5.6,�L
2020/02/16,23:20,0.689,0.981,0.650,1.214,0.861,0.400,0.700,0.662,�k�k��,6.0,�L
2020/02/16,23:30,0.687,0.981,0.651,1.215,0.863,0.400,0.699,0.664,�k�k��,6.5,�L
2020/02/16,23:40,0.688,0.979,0.650,1.217,0.862,0.400,0.700,0.662,�k��,6.5,�L
2020/02/16,23:50,0.689,0.982,0.651,1.217,0.861,0.400,0.700,0.662,�k��,5.8,�L
